Location: Rostock
(54.0884°N, 12.1234°E)
Time: 12:31:05
(UTC+02:00)

ISS - Visible Passes

Search period start: 13 May 2021 00:00
Search period end: 23 May 2021 00:00
Orbit: 417 x 422 km, 51.6° (Epoch: 13 May)

Date Brightness Start Highest point End Pass type
(mag) Time Alt. Az. Time Alt. Az. Time Alt. Az.
13 May -1.5 00:32:07 14° E 00:32:07 14° E 00:32:48 10° E visible
13 May -3.8 02:05:02 34° WSW 02:06:14 57° S 02:09:34 10° E visible
13 May -3.3 03:39:36 10° W 03:42:48 39° SSW 03:45:59 10° SE visible
14 May -3.7 01:18:38 53° S 01:18:51 54° S 01:22:10 10° E visible
14 May -3.5 02:52:11 10° W 02:55:26 46° SSW 02:58:42 10° ESE visible
14 May -2.4 22:52:33 10° SSW 22:55:07 20° SSE 22:55:36 20° SE visible
15 May -3.6 00:28:11 10° WSW 00:31:28 48° SSE 00:34:45 10° E visible
15 May -3.7 02:04:45 10° W 02:08:04 52° S 02:11:22 10° ESE visible
15 May -2.6 03:41:40 10° W 03:44:28 24° SSW 03:47:17 10° SSE visible
15 May -2.0 22:05:51 10° S 22:07:53 15° SE 22:09:54 10° ESE visible
15 May -3.4 23:40:54 10° SW 23:44:06 41° SSE 23:47:18 10° E visible
16 May -3.8 01:17:21 10° W 01:20:40 56° S 01:24:00 10° ESE visible
16 May -3.0 02:54:08 10° W 02:57:10 31° SSW 03:00:12 10° SE visible
16 May -3.1 22:53:40 10° SW 22:56:45 33° SSE 22:59:51 10° E visible
17 May -3.8 00:29:57 10° WSW 00:33:16 57° S 00:36:36 10° E visible
17 May -3.3 02:06:39 10° W 02:09:50 38° SSW 02:13:00 10° SE visible
17 May -1.9 03:44:16 10° WSW 03:46:01 14° SW 03:47:46 10° S visible
17 May -2.7 22:06:33 10° SSW 22:09:26 26° SSE 22:12:19 10° E visible
17 May -3.7 23:42:35 10° WSW 23:45:52 54° S 23:49:11 10° E visible
18 May -3.5 01:19:13 10° W 01:22:28 46° SSW 01:22:56 42° SSE visible
18 May -3.6 22:55:13 10° WSW 22:58:30 48° SSE 23:01:46 10° E visible
19 May -3.7 00:31:48 10° W 00:35:05 52° S 00:36:32 29° SE visible
19 May -1.6 02:08:42 10° W 02:09:26 14° WSW 02:09:26 14° WSW visible
19 May -3.3 22:07:55 10° SW 22:11:07 41° SSE 22:14:19 10° E visible
19 May -3.7 23:44:23 10° W 23:47:42 56° S 23:50:21 15° ESE visible
20 May -2.5 01:21:09 10° W 01:23:16 26° SW 01:23:16 26° SW visible
20 May -3.7 22:56:58 10° WSW 23:00:17 57° S 23:03:37 10° E visible
21 May -3.3 00:33:41 10° W 00:36:51 38° SSW 00:37:12 37° S visible
21 May -3.6 22:09:36 10° WSW 22:12:53 54° S 22:16:12 10° E visible
21 May -3.5 23:46:14 10° W 23:49:28 46° SSW 23:51:10 24° SE visible
22 May -1.5 01:23:23 10° WSW 01:24:06 13° WSW 01:24:06 13° WSW visible
22 May -3.6 22:58:48 10° W 23:02:06 52° S 23:05:10 11° ESE visible
